La Grange, TX

7:31 PM CST on November 11, 2019 (GMT -0600)
La Grange

Weather History for K3T5 - August, 2019

Change the Weather History Date:

Thursday, August 29, 2019

  Actual Average (KAUS) Record (KAUS)
Temperature  
Mean Temperature 86 °F -  
Max Temperature 99 °F 92 °F 108 °F (2011)
Min Temperature 74 °F 70 °F 62 °F (1992)
Cooling Degree Days 22    
Growing Degree Days 36 (Base 50)    
Moisture  
Dew Point 75 °F    
Average Humidity 72    
Maximum Humidity 100    
Minimum Humidity 40    
Precipitation  
Precipitation 0.00 in - - ()
Sea Level Pressure  
Sea Level Pressure 29.98 in    
Wind  
Wind Speed 3 mph (SSE)    
Max Wind Speed 15 mph    
Max Gust Speed 20 mph    
Visibility 9 miles    
Events      
Averages and records for this station are not official NWS values.
T = Trace of Precipitation, MM = Missing Value Source: NWS Daily Summary

Daily Weather History Graph

Daily Weather History Graph

Search for Another Location

Airport or City:

Astronomy

Aug. 29, 2019 Rise Set
Actual Time 7:03 AM CDT 7:53 PM CDT
Civil Twilight 6:38 AM CDT 8:18 PM CDT
Nautical Twilight 6:09 AM CDT 8:47 PM CDT
Astronomical Twilight 5:40 AM CDT 9:16 PM CDT
Moon 5:59 AM CDT (8/29) 7:45 PM CDT (8/29)
Length of Visible Light 13h 39m
Length of Day
12h 50m
Waning Crescent, 1% of the Moon is Illuminated
Aug 29
Waning Crescent
Aug 30
New
Sep 5
First Quarter
Sep 13
Full
Sep 21
Last Quarter

Hourly Weather History & Observations

Time (CDT) Temp. Heat Index Dew Point Humidity Pressure Visibility Wind Dir Wind Speed Gust Speed Precip Events Conditions
12:15 AM 79.9 °F - 75.2 °F 86% 30.01 in 10.0 mi SSE 3.5 mph - N/A   Clear
2:15 AM 77.5 °F - 77.0 °F 98% 30.01 in 10.0 mi SSE 3.5 mph - N/A   Clear
2:35 AM 77.2 °F - 77.0 °F 99% 30.00 in 10.0 mi Calm Calm - N/A   Clear
2:55 AM 77.9 °F - 77.5 °F 99% 29.99 in 10.0 mi Calm Calm - N/A   Clear
3:15 AM 77.5 °F - 77.5 °F 100% 29.99 in 10.0 mi Calm Calm - N/A   Clear
3:55 AM 76.3 °F - 76.3 °F 100% 30.00 in 10.0 mi Calm Calm - N/A   Clear
4:15 AM 75.4 °F - 75.4 °F 100% 29.99 in 7.0 mi Calm Calm - N/A   Clear
4:35 AM 76.1 °F - 76.1 °F 100% 29.99 in 7.0 mi Calm Calm - N/A   Clear
4:55 AM 75.6 °F - 75.6 °F 100% 29.99 in 7.0 mi Calm Calm - N/A   Clear
5:15 AM 75.0 °F - 75.0 °F 100% 29.99 in 4.0 mi Calm Calm - N/A   Clear
5:35 AM 75.2 °F - 75.2 °F 100% 29.99 in 10.0 mi Calm Calm - N/A   Clear
5:55 AM 75.2 °F - 75.2 °F 100% 30.00 in 10.0 mi Calm Calm - N/A   Clear
6:15 AM 75.2 °F - 75.2 °F 100% 30.00 in 7.0 mi Calm Calm - N/A   Clear
6:35 AM 75.2 °F - 75.2 °F 100% 30.01 in 7.0 mi Calm Calm - N/A   Clear
6:55 AM 74.3 °F - 74.3 °F 100% 30.01 in 7.0 mi Calm Calm - N/A   Scattered Clouds
7:15 AM 74.8 °F - 74.8 °F 100% 30.02 in 7.0 mi Calm Calm - N/A   Scattered Clouds
7:35 AM 75.2 °F - 75.2 °F 100% 30.03 in 10.0 mi Calm Calm - N/A   Scattered Clouds
7:55 AM 76.1 °F - 76.1 °F 100% 30.03 in 10.0 mi Calm Calm - N/A   Scattered Clouds
8:15 AM 77.4 °F - 77.4 °F 100% 30.03 in 5.0 mi Calm Calm - N/A   Clear
8:35 AM 78.6 °F - 78.6 °F 100% 30.04 in 7.0 mi Calm Calm - N/A   Scattered Clouds
8:55 AM 81.0 °F 88.8 °F 78.4 °F 92% 30.04 in 10.0 mi Calm Calm - N/A   Scattered Clouds
9:15 AM 82.0 °F 91.0 °F 78.3 °F 88% 30.04 in 10.0 mi Calm Calm - N/A   Mostly Cloudy
9:35 AM 84.0 °F 95.6 °F 78.8 °F 84% 30.04 in 10.0 mi Calm Calm - N/A   Mostly Cloudy
9:55 AM 85.1 °F 97.1 °F 78.4 °F 80% 30.04 in 10.0 mi South 3.5 mph - N/A   Scattered Clouds
10:35 AM 87.6 °F 98.7 °F 76.5 °F 69% 30.04 in 10.0 mi Calm Calm - N/A   Scattered Clouds
10:55 AM 88.9 °F 100.3 °F 76.3 °F 66% 30.04 in 10.0 mi SW 5.8 mph - N/A   Scattered Clouds
11:15 AM 88.7 °F 99.3 °F 75.6 °F 65% 30.04 in 10.0 mi SSW 3.5 mph - N/A   Mostly Cloudy
11:35 AM 90.5 °F 100.9 °F 74.8 °F 60% 30.03 in 10.0 mi Calm Calm - N/A   Scattered Clouds
11:55 AM 89.6 °F 99.3 °F 74.7 °F 61% 30.03 in 10.0 mi Calm Calm - N/A   Mostly Cloudy
12:15 PM 90.5 °F 100.9 °F 74.8 °F 60% 30.02 in 10.0 mi NW 3.5 mph - N/A   Mostly Cloudy
12:35 PM 92.1 °F 102.4 °F 74.5 °F 56% 30.02 in 10.0 mi SW 3.5 mph - N/A   Mostly Cloudy
1:15 PM 95.0 °F 104.5 °F 73.0 °F 49% 30.00 in 7.0 mi SSE 4.6 mph - N/A   Scattered Clouds
1:35 PM 96.3 °F 105.3 °F 72.7 °F 46% 30.00 in 10.0 mi SE 5.8 mph - N/A   Scattered Clouds
1:55 PM 97.3 °F 106.3 °F 72.1 °F 44% 29.99 in 10.0 mi SSE 4.6 mph - N/A   Scattered Clouds
2:15 PM 97.9 °F 106.8 °F 71.6 °F 43% 29.98 in 10.0 mi SSW 6.9 mph - N/A   Scattered Clouds
2:35 PM 97.9 °F 106.1 °F 71.2 °F 42% 29.97 in 10.0 mi ENE 5.8 mph - N/A   Clear
2:55 PM 97.7 °F 105.7 °F 71.1 °F 42% 29.96 in 10.0 mi SE 4.6 mph - N/A   Clear
3:15 PM 98.8 °F 107.3 °F 71.6 °F 41% 29.95 in 10.0 mi East 3.5 mph - N/A   Clear
3:35 PM 98.1 °F 105.0 °F 70.2 °F 40% 29.94 in 10.0 mi Calm Calm - N/A   Clear
3:55 PM 97.7 °F 104.3 °F 69.6 °F 40% 29.93 in 10.0 mi Calm Calm - N/A   Clear
4:15 PM 99.3 °F 108.5 °F 71.8 °F 41% 29.93 in 10.0 mi South 4.6 mph - N/A   Scattered Clouds
4:35 PM 98.4 °F 105.8 °F 70.3 °F 40% 29.92 in 10.0 mi Calm Calm - N/A   Scattered Clouds
4:55 PM 98.1 °F 106.5 °F 71.2 °F 42% 29.92 in 10.0 mi East 8.1 mph - N/A   Mostly Cloudy
5:15 PM 94.3 °F 103.5 °F 72.9 °F 50% 29.92 in 10.0 mi ESE 9.2 mph - N/A   Scattered Clouds
5:35 PM 97.5 °F 107.5 °F 72.9 °F 45% 29.92 in 10.0 mi ESE 13.8 mph - N/A   Clear
5:55 PM 96.3 °F 105.3 °F 72.7 °F 46% 29.92 in 10.0 mi ESE 6.9 mph - N/A   Clear
6:15 PM 96.6 °F 105.4 °F 72.3 °F 45% 29.92 in 10.0 mi SE 6.9 mph - N/A   Clear
6:35 PM 96.3 °F 103.9 °F 71.2 °F 44% 29.91 in 10.0 mi ESE 5.8 mph - N/A   Clear
6:55 PM 95.7 °F 104.1 °F 72.0 °F 46% 29.91 in 10.0 mi ESE 5.8 mph - N/A   Clear
7:15 PM 93.7 °F 101.7 °F 72.0 °F 49% 29.92 in 10.0 mi SSE 15.0 mph 19.6 mph N/A   Clear
7:35 PM 90.0 °F 99.0 °F 73.9 °F 59% 29.93 in 10.0 mi SSE 9.2 mph - N/A   Clear
7:55 PM 88.9 °F 97.6 °F 73.9 °F 61% 29.93 in 10.0 mi South 9.2 mph - N/A   Clear
8:15 PM 88.3 °F 97.4 °F 74.1 °F 63% 29.93 in 10.0 mi South 6.9 mph - N/A   Clear
8:35 PM 87.6 °F 96.2 °F 74.3 °F 64% 29.94 in 10.0 mi SSE 5.8 mph - N/A   Clear
8:55 PM 86.5 °F 95.0 °F 74.5 °F 67% 29.95 in 10.0 mi SSE 4.6 mph - N/A   Clear
9:15 PM 85.6 °F 93.8 °F 74.3 °F 69% 29.96 in 10.0 mi SSE 3.5 mph - N/A   Clear
9:35 PM 85.1 °F 93.7 °F 75.0 °F 72% 29.97 in 10.0 mi SSE 4.6 mph - N/A   Clear
9:55 PM 84.7 °F 93.2 °F 75.2 °F 73% 29.98 in 10.0 mi SSE 5.8 mph - N/A   Clear
10:15 PM 83.8 °F 92.1 °F 75.4 °F 76% 29.99 in 10.0 mi SSE 3.5 mph - N/A   Clear
10:35 PM 83.8 °F 92.1 °F 75.6 °F 76% 29.99 in 10.0 mi SSE 6.9 mph - N/A   Clear
10:55 PM 83.8 °F 92.5 °F 76.1 °F 77% 29.99 in 10.0 mi SSE 6.9 mph - N/A   Clear
11:15 PM 83.1 °F 91.6 °F 76.5 °F 80% 30.00 in 10.0 mi SSE 5.8 mph - N/A   Clear
11:35 PM 82.8 °F 91.3 °F 76.6 °F 82% 30.00 in 10.0 mi South 5.8 mph - N/A   Clear
11:55 PM 81.9 °F 89.7 °F 77.0 °F 85% 30.00 in 10.0 mi SSE 4.6 mph - N/A   Clear